[[{"header":{"parameterUnit":"m.s-1","parameterCategory":1,"la1":30.2991,"la2":30.254,"lo1":-89.0895,"lo2":-89.0444,"dy":0.0017,"dx":0.0017,"nx":28,"ny":28,"refTime":"2025-04-22T09:00:00:Z","depth":0,"parameterNumber":2,"parameterNumberName":"U-component_of_WINDS"},"data":[0,0,0,0,0,0,0,0,0,0,0,0,0,0,0,0,0,0,0,0,0,0,0,0,0,0,0,0,0,0,0,0,0,0,0,0,0,0,0,0,0,0,0,0,0,0,0,0,0,0,0,0,0,0,0,0,0,0,-1.9765,-1.9764,0,-1.9734,-1.9734,-1.9734,-1.9674,-1.9672,-1.9671,-1.967,-1.9639,-1.9639,-1.9639,0,0,0,0,0,0,0,0,0,0,0,0,0,-1.9771,-1.9772,-1.9765,-1.9764,-1.9764,-1.9734,-1.9734,-1.9734,-1.9674,-1.9672,-1.9671,-1.9669,-1.9639,-1.9639,-1.9639,0,0,0,0,0,0,0,0,0,0,0,0,0,-1.9758,-1.9772,-1.9765,-1.973,-1.9727,-1.9734,-1.9734,-1.9733,-1.9674,-1.9672,-1.967,-1.9669,-1.9639,-1.9639,-1.964,-1.9678,0,0,-1.9641,-1.9641,0,0,0,0,0,0,0,0,-1.9758,-1.9757,-1.9736,-1.9733,-1.9729,-1.9706,-1.9725,-1.9715,-1.9674,-1.9694,-1.967,-1.9668,-1.9663,-1.9661,-1.9659,-1.9676,-1.9675,-1.9641,-1.9641,-1.9641,-1.9641,0,0,0,0,0,0,0,-1.9759,-1.9758,-1.9753,-1.9736,-1.9731,-1.9717,-1.9713,-1.9723,-1.9689,-1.9692,-1.9688,-1.9685,-1.966,-1.9659,-1.9658,-1.9675,-1.9641,-1.9641,-1.9641,-1.9642,-1.9723,-1.9724,0,0,0,0,0,0,-1.9765,-1.976,-1.9753,-1.9752,-1.974,-1.9718,-1.9714,-1.9715,-1.9688,-1.9683,-1.9687,-1.9682,-1.9659,-1.9658,-1.9657,-1.97,-1.9641,-1.9642,-1.9642,-1.9721,-1.9723,-1.9725,0,0,0,0,0,0,-1.9766,-1.9765,-1.9755,-1.9754,-1.9752,-1.972,-1.9722,-1.9715,-1.9714,-1.9684,-1.9678,-1.9691,-1.9658,-1.9656,-1.9673,-1.9698,-1.9642,-1.9642,-1.9718,-1.9721,-1.9724,-1.9787,0,0,0,0,0,0,-1.9766,-1.9766,-1.978,-1.9755,-1.9752,-1.9772,-1.9723,-1.9716,-1.9715,-1.9709,-1.9687,-1.9682,-1.9656,-1.9673,-1.9674,-1.9698,-1.9643,-1.9716,-1.972,-1.9723,-1.9782,-1.9791,-1.9799,0,0,0,0,0,-1.9767,-1.9798,-1.9781,-1.978,-1.9769,-1.9773,-1.9771,-1.9742,-1.9717,-1.9731,-1.9712,-1.9682,-1.9696,-1.9675,-1.9675,-1.97,-1.9714,-1.9719,-1.9723,-1.9778,-1.979,-1.9799,0,0,0,0,0,0,-1.9826,-1.9794,-1.9774,-1.9799,-1.9789,-1.9763,-1.9779,-1.9754,-1.9751,-1.9746,-1.9709,-1.9704,-1.9727,-1.9715,-1.9693,-1.9736,-1.97,-1.9705,-1.9742,-1.9753,-1.9761,-1.9763,-1.9643,0,0,0,0,0,-1.9842,-1.9848,-1.982,-1.9845,-1.9841,-1.9811,-1.9812,-1.979,-1.9778,-1.9774,-1.9756,-1.9746,-1.9748,-1.975,-1.975,-1.9781,-1.9775,-1.9798,-1.9806,-1.9814,-1.9818,-1.9834,-1.9843,-1.9739,-1.9739,-1.9739,0,0,-1.9875,-1.9859,-1.9864,-1.9856,-1.9846,-1.9853,-1.9808,-1.9817,-1.9823,-1.9775,-1.979,-1.9777,-1.9764,-1.9788,-1.9798,-1.9779,-1.9845,-1.9819,-1.9825,-1.9825,-1.9839,-1.9849,-1.9858,-1.9742,-1.9741,-1.9741,0,0,-1.9939,-1.9927,-1.9946,-1.9937,-1.9923,-1.9903,-1.9908,-1.9886,-1.9876,-1.989,-1.9855,-1.9861,-1.9865,-1.9857,-1.9853,-1.9917,-1.9889,-1.9918,-1.9961,-1.9977,-1.9986,-1.9993,-2.0015,-2.0024,-1.9922,-1.9922,-1.9922,0,-1.9981,-1.9991,-1.9959,-1.9971,-1.9969,-1.9927,-1.9947,-1.994,-1.9926,-1.9926,-1.9905,-1.991,-1.9898,-1.992,-1.9936,-1.9934,-1.9939,-1.9919,-1.9987,-1.9994,-2.0,-2.0021,-2.0029,-1.9926,-1.9925,-1.9925,-1.9925,0,-2.0044,-2.0052,-2.0069,-2.0057,-2.0057,-2.0073,-2.0044,-2.0048,-2.0027,-2.001,-2.0026,-2.001,-2.0007,-2.0011,-1.999,-2.003,-2.0019,-1.9994,-1.9957,-2.0014,-2.0033,-2.0041,-1.9931,-1.993,-1.9929,-1.9928,0,0,-2.0143,-2.0114,-2.0121,-2.0116,-2.0098,-2.0103,-2.0117,-2.0114,-2.0118,-2.0111,-2.0122,-2.0128,-2.0104,-2.01,-2.0078,-2.0093,-2.0144,-2.0065,-2.0064,-2.008,-2.0188,-2.0207,-2.0217,-2.0126,-2.0128,-2.0129,-2.0189,0,-2.0202,-2.0224,-2.0197,-2.0226,-2.0232,-2.0194,-2.0207,-2.0197,-2.0182,-2.0186,-2.0169,-2.0174,-2.0142,-2.014,-2.0153,-2.0135,-2.0165,-2.0131,-2.0136,-2.0137,-2.014,-2.0226,-2.0246,-2.0303,-2.0196,-2.0198,-2.0198,0,-2.0273,-2.0269,-2.0299,-2.028,-2.0281,-2.0293,-2.0289,-2.0293,-2.0282,-2.027,-2.0267,-2.0241,-2.0255,-2.022,-2.0238,-2.0216,-2.0217,-2.0209,-2.021,-2.0209,-2.017,-2.0227,-2.0321,-2.0329,-2.021,-2.0209,-2.0208,0,-2.0342,-2.0344,-2.0362,-2.0359,-2.0337,-2.0346,-2.0338,-2.0325,-2.0325,-2.0322,-2.0322,-2.032,-2.0319,-2.0319,-2.0294,-2.0271,-2.0315,-2.0278,-2.0306,-2.0306,-2.0315,-2.0315,-2.041,-2.0318,-2.0318,-2.0318,-2.0318,0,-2.041,-2.0429,-2.0393,-2.0404,-2.0425,-2.0394,-2.0416,-2.0403,-2.0393,-2.0401,-2.0368,-2.0377,-2.0343,-2.0349,-2.0329,-2.0348,-2.0348,-2.0338,-2.0333,-2.0341,-2.0342,-2.034,-2.0335,-2.032,-2.0319,-2.0319,-2.0319,0,-2.0489,-2.0466,-2.0483,-2.0461,-2.0456,-2.0473,-2.0454,-2.0464,-2.0448,-2.0459,-2.046,-2.0434,-2.0438,-2.0414,-2.0414,-2.0401,-2.0429,-2.0417,-2.0432,-2.0428,-2.0457,-2.0454,-2.0554,-2.0565,-2.0466,-2.0467,-2.0468,0,-2.0534,-2.0548,-2.0528,-2.0531,-2.0525,-2.053,-2.0531,-2.0502,-2.0504,-2.0493,-2.0504,-2.0506,-2.0506,-2.0516,-2.0497,-2.0497,-2.0485,-2.052,-2.0484,-2.0492,-2.0485,-2.0484,-2.0485,-2.0527,-2.0528,-2.0529,-2.053,0,-2.0616,-2.0604,-2.0605,-2.0603,-2.0605,-2.0602,-2.0597,-2.0602,-2.057,-2.0574,-2.0579,-2.0579,-2.058,-2.0582,-2.0579,-2.057,-2.0545,-2.0541,-2.0547,-2.0555,-2.0564,-2.0559,-2.0451,-2.0539,-2.0538,-2.0537,-2.0537,-2.0536,-2.0678,-2.0689,-2.0678,-2.0681,-2.0674,-2.0671,-2.0679,-2.0664,-2.0667,-2.0665,-2.0648,-2.0656,-2.0646,-2.0639,-2.0633,-2.064,-2.0623,-2.0632,-2.0634,-2.0637,-2.0642,-2.0564,-2.0639,-2.0639,-2.0638,-2.0638,-2.0638,0,-2.0758,-2.0749,-2.0752,-2.0747,-2.075,-2.0726,-2.072,-2.0724,-2.0731,-2.0724,-2.0725,-2.073,-2.0733,-2.0716,-2.0716,-2.0725,-2.0713,-2.0726,-2.0724,-2.0723,-2.0657,-2.0651,-2.0735,-2.0735,-2.0735,-2.0735,-2.0735,-2.0735,-2.08,-2.0817,-2.0804,-2.0818,-2.0809,-2.0816,-2.0815,-2.0812,-2.0806,-2.0814,-2.0816,-2.0804,-2.0793,-2.0793,-2.0795,-2.079,-2.0791,-2.0808,-2.0799,-2.0737,-2.0727,-2.0718,-2.0713,-2.0808,-2.0809,-2.0864,-2.0865,-2.0865]},{"header":{"parameterUnit":"m.s-1","parameterCategory":1,"la1":30.2991,"la2":30.254,"lo1":-89.0895,"lo2":-89.0444,"dy":0.0017,"dx":0.0017,"nx":28,"ny":28,"refTime":"2025-04-22T09:00:00:Z","depth":0,"parameterNumber":3,"parameterNumberName":"V-component_of_WINDS"},"data":[0,0,0,0,0,0,0,0,0,0,0,0,0,0,0,0,0,0,0,0,0,0,0,0,0,0,0,0,0,0,0,0,0,0,0,0,0,0,0,0,0,0,0,0,0,0,0,0,0,0,0,0,0,0,0,0,0,0,2.3167,2.3167,0,2.3193,2.3194,2.3194,2.322,2.322,2.3221,2.3221,2.3246,2.3247,2.3247,0,0,0,0,0,0,0,0,0,0,0,0,0,2.3137,2.3137,2.3167,2.3167,2.3167,2.3193,2.3194,2.3194,2.322,2.322,2.3221,2.3221,2.3246,2.3247,2.3247,0,0,0,0,0,0,0,0,0,0,0,0,0,2.3155,2.3137,2.3167,2.3183,2.3185,2.3193,2.3194,2.3194,2.322,2.322,2.3221,2.3221,2.3246,2.3247,2.3247,2.324,0,0,2.3249,2.3249,0,0,0,0,0,0,0,0,2.3154,2.3156,2.3181,2.3182,2.3184,2.3204,2.3193,2.321,2.322,2.3207,2.3221,2.3222,2.3232,2.3234,2.3237,2.3242,2.3243,2.3249,2.3249,2.325,2.325,0,0,0,0,0,0,0,2.3153,2.3155,2.3177,2.3181,2.3183,2.3189,2.3192,2.3196,2.3216,2.3208,2.321,2.3213,2.3233,2.3237,2.3238,2.3243,2.3249,2.3249,2.325,2.325,2.3243,2.3243,0,0,0,0,0,0,2.3149,2.3154,2.3176,2.3178,2.317,2.3189,2.3193,2.3197,2.3216,2.3219,2.3212,2.3214,2.3236,2.3237,2.3239,2.3233,2.325,2.325,2.325,2.3244,2.3243,2.3243,0,0,0,0,0,0,2.3148,2.3151,2.3175,2.3167,2.317,2.3189,2.3194,2.3197,2.3201,2.3219,2.3223,2.3213,2.3236,2.3238,2.324,2.3234,2.325,2.3251,2.3244,2.3244,2.3243,2.322,0,0,0,0,0,0,2.3147,2.315,2.3148,2.3166,2.317,2.3176,2.3193,2.3197,2.3202,2.3205,2.3221,2.3224,2.3237,2.3239,2.3241,2.3235,2.3251,2.3245,2.3244,2.3243,2.3221,2.3218,2.3216,0,0,0,0,0,2.3146,2.314,2.3148,2.3151,2.3168,2.3176,2.3178,2.3194,2.3202,2.32,2.3211,2.3223,2.3234,2.3239,2.3241,2.3235,2.3246,2.3244,2.3243,2.3222,2.3219,2.3216,0,0,0,0,0,0,2.312,2.3143,2.3152,2.3152,2.3162,2.318,2.3178,2.3189,2.3197,2.3199,2.3217,2.322,2.322,2.3228,2.3233,2.323,2.3242,2.3241,2.3225,2.3222,2.3219,2.3217,2.3252,0,0,0,0,0,2.3115,2.3119,2.3139,2.3136,2.3141,2.3159,2.3162,2.3173,2.3184,2.3189,2.32,2.321,2.3216,2.3219,2.3225,2.3222,2.3226,2.3219,2.3217,2.3214,2.3214,2.3213,2.321,2.3239,2.3239,2.3239,0,0,2.3103,2.3116,2.3117,2.3132,2.3141,2.3145,2.3162,2.3165,2.3169,2.3189,2.3192,2.32,2.3213,2.3212,2.3212,2.3218,2.3206,2.3213,2.3211,2.3211,2.3211,2.3209,2.3206,2.3238,2.3238,2.3238,0,0,2.3084,2.3094,2.3093,2.3102,2.3116,2.3128,2.3128,2.3145,2.3152,2.3155,2.317,2.3174,2.3183,2.3191,2.3197,2.3181,2.3192,2.3182,2.3169,2.3168,2.3165,2.3163,2.3158,2.3156,2.3181,2.3181,2.3181,0,2.3067,2.3075,2.3092,2.3095,2.31,2.3119,2.3119,2.3127,2.3141,2.3145,2.3152,2.3164,2.3174,2.3176,2.3172,2.3175,2.3176,2.3181,2.3164,2.3163,2.3161,2.3156,2.3154,2.318,2.318,2.318,2.318,0,2.3054,2.3059,2.3056,2.3071,2.3077,2.3078,2.3095,2.3098,2.3109,2.312,2.3122,2.3134,2.3144,2.3145,2.3155,2.3148,2.3152,2.3161,2.3173,2.3157,2.3153,2.3151,2.3178,2.3179,2.3179,2.3179,0,0,2.3019,2.3044,2.3043,2.305,2.3067,2.307,2.3072,2.3082,2.3085,2.3094,2.3096,2.3104,2.3113,2.3119,2.313,2.3129,2.3116,2.3139,2.314,2.3135,2.311,2.3103,2.3101,2.3124,2.3124,2.3123,2.3109,0,2.3003,2.3009,2.3024,2.3025,2.3029,2.3048,2.3049,2.306,2.307,2.3075,2.3086,2.3091,2.3103,2.3107,2.3106,2.3118,2.3112,2.3119,2.3126,2.3126,2.3123,2.3098,2.3091,2.3077,2.3108,2.3107,2.3107,0,2.2985,2.2995,2.2996,2.3013,2.3015,2.3017,2.3027,2.3032,2.3044,2.3051,2.3058,2.307,2.3073,2.3084,2.3088,2.3093,2.3096,2.3102,2.3102,2.3104,2.3116,2.31,2.3073,2.3071,2.3105,2.3105,2.3105,0,2.2961,2.2973,2.2976,2.2981,2.3001,2.3001,2.3009,2.3022,2.3027,2.3036,2.3039,2.3048,2.3052,2.3059,2.3073,2.308,2.3075,2.3088,2.3082,2.3081,2.308,2.308,2.3054,2.3082,2.3082,2.3082,2.3082,0,2.2942,2.2942,2.2965,2.2967,2.2967,2.2985,2.2985,2.2994,2.3005,2.3009,2.3025,2.3028,2.3046,2.3051,2.3062,2.3064,2.3066,2.3072,2.3075,2.3071,2.307,2.3074,2.3075,2.3081,2.3081,2.3082,2.3082,0,2.2914,2.293,2.2934,2.2953,2.2957,2.2957,2.2972,2.2974,2.2986,2.299,2.2992,2.3009,2.3016,2.3031,2.3041,2.3048,2.3048,2.3053,2.3044,2.3046,2.3039,2.304,2.3015,2.3013,2.3041,2.3041,2.3041,0,2.2902,2.2902,2.2921,2.2925,2.2932,2.2938,2.2944,2.2961,2.2966,2.2979,2.298,2.2988,2.2995,2.3005,2.3018,2.3026,2.3032,2.3022,2.3033,2.3029,2.3032,2.3032,2.3032,2.302,2.302,2.3019,2.3019,0,2.2877,2.2885,2.2892,2.2902,2.2909,2.2917,2.2927,2.2929,2.2948,2.2952,2.296,2.2965,2.2976,2.2984,2.2994,2.3002,2.3014,2.3016,2.3015,2.3011,2.3006,2.3009,2.3038,2.3016,2.3016,2.3017,2.3017,2.3017,2.2857,2.2859,2.2872,2.288,2.2889,2.2898,2.2901,2.2912,2.2919,2.293,2.2939,2.2946,2.2957,2.2972,2.2979,2.2984,2.299,2.2989,2.2989,2.2988,2.2987,2.3005,2.2986,2.2986,2.2986,2.2987,2.2987,0,2.2834,2.2844,2.2851,2.2864,2.287,2.2881,2.2892,2.2896,2.2902,2.2912,2.2919,2.2927,2.2935,2.2949,2.2958,2.2959,2.2965,2.2961,2.2961,2.2963,2.2981,2.2981,2.2956,2.2956,2.2956,2.2956,2.2956,2.2956,2.2823,2.2826,2.2836,2.2844,2.2853,2.286,2.2866,2.2873,2.2882,2.2891,2.2898,2.2907,2.2918,2.2928,2.2936,2.2939,2.2942,2.2936,2.2942,2.2959,2.2961,2.2964,2.2964,2.2937,2.2937,2.2924,2.2924,2.2924]}]]